Anzahl Datensätze: 288
min. Temperatur: 18.2 °C
max. Temperatur: 23.5 °C
max. Windgeschwindigkeit: 14.4 km/h
Niederschlagsumme: 10.0 mm
| Datum |
Zeit |
Temp °C |
Feuchte % |
Taupunkt °C |
Luftdruck hPa |
Wind km/h |
Windrichtung |
Strahlung w/m² |
Niederschlag mm |
|---|---|---|---|---|---|---|---|---|---|
| 30.08.2024 | 00:00 | 20.6 | 82 | 17.4 | 1014.8 | 0.0 | N | 0 | 0.0 |
| 30.08.2024 | 00:05 | 20.6 | 81 | 17.2 | 1014.8 | 0.0 | N | 0 | 0.0 |
| 30.08.2024 | 00:10 | 20.6 | 81 | 17.2 | 1014.9 | 0.0 | N | 0 | 0.0 |
| 30.08.2024 | 00:15 | 20.6 | 81 | 17.2 | 1014.9 | 0.0 | N | 0 | 0.0 |
| 30.08.2024 | 00:20 | 20.6 | 81 | 17.2 | 1015.0 | 0.0 | N | 0 | 0.0 |
| 30.08.2024 | 00:25 | 20.6 | 81 | 17.2 | 1015.0 | 0.0 | N | 0 | 0.0 |
| 30.08.2024 | 00:30 | 20.6 | 81 | 17.2 | 1015.0 | 0.0 | N | 0 | 0.0 |
| 30.08.2024 | 00:35 | 20.6 | 81 | 17.2 | 1015.0 | 0.0 | N | 0 | 0.0 |
| 30.08.2024 | 00:40 | 20.5 | 81 | 17.1 | 1015.1 | 0.0 | N | 0 | 0.0 |
| 30.08.2024 | 00:45 | 20.4 | 82 | 17.2 | 1015.1 | 0.0 | N | 0 | 0.0 |
| 30.08.2024 | 00:50 | 20.4 | 82 | 17.2 | 1015.2 | 0.0 | N | 0 | 0.0 |
| 30.08.2024 | 00:55 | 20.3 | 82 | 17.1 | 1015.1 | 0.0 | N | 0 | 0.0 |
| 30.08.2024 | 01:00 | 20.3 | 82 | 17.1 | 1015.1 | 0.0 | N | 0 | 0.0 |
| 30.08.2024 | 01:05 | 20.3 | 82 | 17.1 | 1015.0 | 0.0 | N | 0 | 0.0 |
| 30.08.2024 | 01:10 | 20.3 | 82 | 17.1 | 1015.0 | 0.0 | N | 0 | 0.0 |
| 30.08.2024 | 01:15 | 20.2 | 82 | 17.0 | 1014.9 | 0.0 | N | 0 | 0.0 |
| 30.08.2024 | 01:20 | 20.2 | 82 | 17.0 | 1014.9 | 0.0 | N | 0 | 0.0 |
| 30.08.2024 | 01:25 | 20.2 | 82 | 17.0 | 1014.9 | 0.0 | N | 0 | 0.0 |
| 30.08.2024 | 01:30 | 20.1 | 82 | 16.9 | 1014.9 | 0.0 | N | 0 | 0.0 |
| 30.08.2024 | 01:35 | 20.1 | 82 | 16.9 | 1014.9 | 0.0 | N | 0 | 0.0 |
| 30.08.2024 | 01:40 | 20.0 | 82 | 16.8 | 1014.9 | 0.0 | N | 0 | 0.0 |
| 30.08.2024 | 01:45 | 20.0 | 82 | 16.8 | 1014.9 | 0.0 | N | 0 | 0.0 |
| 30.08.2024 | 01:50 | 19.9 | 82 | 16.7 | 1014.9 | 0.0 | N | 0 | 0.0 |
| 30.08.2024 | 01:55 | 19.9 | 82 | 16.7 | 1014.9 | 0.0 | N | 0 | 0.0 |
| 30.08.2024 | 02:00 | 19.9 | 82 | 16.7 | 1015.0 | 0.0 | N | 0 | 0.0 |
| 30.08.2024 | 02:05 | 19.9 | 82 | 16.7 | 1014.8 | 0.0 | N | 0 | 0.0 |
| 30.08.2024 | 02:10 | 19.8 | 82 | 16.6 | 1014.8 | 0.0 | N | 0 | 0.0 |
| 30.08.2024 | 02:15 | 19.8 | 83 | 16.8 | 1014.9 | 0.0 | N | 0 | 0.0 |
| 30.08.2024 | 02:20 | 19.8 | 83 | 16.8 | 1015.0 | 0.0 | N | 0 | 0.0 |
| 30.08.2024 | 02:25 | 19.8 | 83 | 16.8 | 1015.0 | 0.0 | N | 0 | 0.0 |
| 30.08.2024 | 02:30 | 19.8 | 83 | 16.8 | 1015.0 | 0.0 | N | 0 | 0.0 |
| 30.08.2024 | 02:35 | 19.7 | 83 | 16.7 | 1015.1 | 0.0 | N | 0 | 0.0 |
| 30.08.2024 | 02:40 | 19.7 | 83 | 16.7 | 1015.0 | 0.0 | N | 0 | 0.0 |
| 30.08.2024 | 02:45 | 19.7 | 83 | 16.7 | 1014.9 | 0.0 | N | 0 | 0.0 |
| 30.08.2024 | 02:50 | 19.6 | 83 | 16.6 | 1015.0 | 0.0 | N | 0 | 0.0 |
| 30.08.2024 | 02:55 | 19.5 | 83 | 16.5 | 1015.1 | 0.0 | N | 0 | 0.0 |
| 30.08.2024 | 03:00 | 19.4 | 83 | 16.4 | 1015.1 | 0.0 | N | 0 | 0.0 |
| 30.08.2024 | 03:05 | 19.4 | 84 | 16.6 | 1015.0 | 0.0 | N | 0 | 0.0 |
| 30.08.2024 | 03:10 | 19.3 | 84 | 16.5 | 1014.9 | 0.0 | N | 0 | 0.0 |
| 30.08.2024 | 03:15 | 19.2 | 84 | 16.4 | 1015.0 | 0.0 | N | 0 | 0.0 |
| 30.08.2024 | 03:20 | 19.1 | 84 | 16.3 | 1014.8 | 0.0 | N | 0 | 0.0 |
| 30.08.2024 | 03:25 | 19.1 | 85 | 16.5 | 1014.8 | 0.0 | N | 0 | 0.0 |
| 30.08.2024 | 03:30 | 19.0 | 85 | 16.4 | 1014.9 | 0.0 | N | 0 | 0.0 |
| 30.08.2024 | 03:35 | 18.9 | 85 | 16.3 | 1014.7 | 0.0 | N | 0 | 0.0 |
| 30.08.2024 | 03:40 | 18.9 | 85 | 16.3 | 1014.7 | 0.0 | N | 0 | 0.0 |
| 30.08.2024 | 03:45 | 18.8 | 86 | 16.4 | 1014.8 | 0.0 | N | 0 | 0.0 |
| 30.08.2024 | 03:50 | 18.8 | 86 | 16.4 | 1014.8 | 0.0 | N | 0 | 0.0 |
| 30.08.2024 | 03:55 | 18.8 | 86 | 16.4 | 1014.9 | 0.0 | N | 0 | 0.0 |
| 30.08.2024 | 04:00 | 18.8 | 86 | 16.4 | 1014.9 | 0.0 | N | 0 | 0.0 |
| 30.08.2024 | 04:05 | 18.8 | 86 | 16.4 | 1014.8 | 0.0 | N | 0 | 0.0 |
| 30.08.2024 | 04:10 | 18.8 | 86 | 16.4 | 1014.8 | 0.0 | N | 0 | 0.0 |
| 30.08.2024 | 04:15 | 18.8 | 86 | 16.4 | 1014.8 | 0.0 | N | 0 | 0.0 |
| 30.08.2024 | 04:20 | 18.7 | 86 | 16.3 | 1014.9 | 0.0 | N | 0 | 0.0 |
| 30.08.2024 | 04:25 | 18.7 | 86 | 16.3 | 1014.9 | 0.0 | N | 0 | 0.0 |
| 30.08.2024 | 04:30 | 18.7 | 86 | 16.3 | 1015.0 | 0.0 | N | 0 | 0.0 |
| 30.08.2024 | 04:35 | 18.7 | 87 | 16.5 | 1015.0 | 0.0 | N | 0 | 0.0 |
| 30.08.2024 | 04:40 | 18.7 | 87 | 16.5 | 1015.0 | 0.0 | N | 0 | 0.0 |
| 30.08.2024 | 04:45 | 18.7 | 87 | 16.5 | 1015.0 | 0.0 | N | 0 | 0.0 |
| 30.08.2024 | 04:50 | 18.7 | 87 | 16.5 | 1015.1 | 0.0 | N | 0 | 0.0 |
| 30.08.2024 | 04:55 | 18.7 | 87 | 16.5 | 1015.0 | 0.0 | N | 0 | 0.0 |
| 30.08.2024 | 05:00 | 18.7 | 87 | 16.5 | 1015.0 | 0.0 | N | 0 | 0.0 |
| 30.08.2024 | 05:05 | 18.7 | 86 | 16.3 | 1014.9 | 0.0 | N | 0 | 0.0 |
| 30.08.2024 | 05:10 | 18.7 | 86 | 16.3 | 1014.9 | 0.0 | N | 0 | 0.0 |
| 30.08.2024 | 05:15 | 18.7 | 86 | 16.3 | 1014.9 | 0.0 | N | 0 | 0.0 |
| 30.08.2024 | 05:20 | 18.7 | 86 | 16.3 | 1015.0 | 0.0 | N | 0 | 0.0 |
| 30.08.2024 | 05:25 | 18.8 | 86 | 16.4 | 1015.2 | 0.0 | N | 0 | 0.0 |
| 30.08.2024 | 05:30 | 18.7 | 86 | 16.3 | 1015.4 | 0.0 | N | 0 | 0.0 |
| 30.08.2024 | 05:35 | 18.7 | 86 | 16.3 | 1015.6 | 0.0 | N | 0 | 0.0 |
| 30.08.2024 | 05:40 | 18.7 | 86 | 16.3 | 1015.6 | 0.0 | N | 0 | 0.0 |
| 30.08.2024 | 05:45 | 18.7 | 87 | 16.5 | 1015.6 | 0.0 | N | 0 | 0.0 |
| 30.08.2024 | 05:50 | 18.7 | 87 | 16.5 | 1015.6 | 0.0 | N | 0 | 0.0 |
| 30.08.2024 | 05:55 | 18.7 | 87 | 16.5 | 1015.6 | 0.0 | N | 0 | 0.0 |
| 30.08.2024 | 06:00 | 18.7 | 87 | 16.5 | 1015.4 | 0.0 | N | 0 | 0.0 |
| 30.08.2024 | 06:05 | 18.7 | 86 | 16.3 | 1015.3 | 0.0 | N | 0 | 0.0 |
| 30.08.2024 | 06:10 | 18.7 | 87 | 16.5 | 1015.2 | 0.0 | N | 0 | 0.0 |
| 30.08.2024 | 06:15 | 18.7 | 86 | 16.3 | 1015.0 | 0.0 | N | 0 | 0.0 |
| 30.08.2024 | 06:20 | 18.7 | 86 | 16.3 | 1015.1 | 0.0 | N | 0 | 0.0 |
| 30.08.2024 | 06:25 | 18.7 | 86 | 16.3 | 1015.0 | 0.0 | N | 0 | 0.0 |
| 30.08.2024 | 06:30 | 18.6 | 87 | 16.4 | 1014.9 | 0.0 | N | 0 | 0.0 |
| 30.08.2024 | 06:35 | 18.6 | 87 | 16.4 | 1014.9 | 0.0 | N | 0 | 0.0 |
| 30.08.2024 | 06:40 | 18.6 | 87 | 16.4 | 1014.9 | 0.0 | N | 0 | 0.0 |
| 30.08.2024 | 06:45 | 18.5 | 87 | 16.3 | 1015.1 | 0.0 | N | 0 | 0.0 |
| 30.08.2024 | 06:50 | 18.5 | 87 | 16.3 | 1015.3 | 0.0 | N | 0 | 0.0 |
| 30.08.2024 | 06:55 | 18.4 | 87 | 16.2 | 1015.3 | 0.0 | N | 0 | 0.0 |
| 30.08.2024 | 07:00 | 18.5 | 87 | 16.3 | 1015.5 | 0.0 | N | 5 | 0.0 |
| 30.08.2024 | 07:05 | 18.4 | 87 | 16.2 | 1015.7 | 0.0 | N | 7 | 0.0 |
| 30.08.2024 | 07:10 | 18.5 | 87 | 16.3 | 1015.9 | 0.0 | N | 7 | 0.0 |
| 30.08.2024 | 07:15 | 18.5 | 87 | 16.3 | 1015.6 | 0.0 | N | 9 | 0.0 |
| 30.08.2024 | 07:20 | 18.6 | 87 | 16.4 | 1015.2 | 0.0 | N | 11 | 0.0 |
| 30.08.2024 | 07:25 | 18.5 | 87 | 16.3 | 1015.1 | 0.0 | N | 14 | 0.0 |
| 30.08.2024 | 07:30 | 18.5 | 87 | 16.3 | 1015.1 | 0.0 | N | 19 | 0.0 |
| 30.08.2024 | 07:35 | 18.5 | 87 | 16.3 | 1014.9 | 0.0 | N | 25 | 0.0 |
| 30.08.2024 | 07:40 | 18.5 | 87 | 16.3 | 1014.7 | 0.0 | N | 28 | 0.0 |
| 30.08.2024 | 07:45 | 18.6 | 87 | 16.4 | 1014.7 | 0.0 | N | 32 | 0.0 |
| 30.08.2024 | 07:50 | 18.7 | 87 | 16.5 | 1014.8 | 0.0 | N | 33 | 0.0 |
| 30.08.2024 | 07:55 | 18.7 | 87 | 16.5 | 1014.8 | 0.0 | N | 35 | 0.0 |
| 30.08.2024 | 08:00 | 18.7 | 86 | 16.3 | 1014.8 | 0.0 | N | 40 | 0.0 |
| 30.08.2024 | 08:05 | 18.8 | 86 | 16.4 | 1014.7 | 0.0 | N | 44 | 0.0 |
| 30.08.2024 | 08:10 | 18.8 | 86 | 16.4 | 1014.9 | 0.0 | N | 39 | 0.0 |
| 30.08.2024 | 08:15 | 18.9 | 86 | 16.5 | 1014.9 | 0.0 | N | 42 | 0.0 |
| 30.08.2024 | 08:20 | 19.0 | 86 | 16.6 | 1014.8 | 0.0 | N | 53 | 0.0 |
| 30.08.2024 | 08:25 | 19.1 | 86 | 16.7 | 1014.9 | 0.0 | N | 70 | 0.0 |
| 30.08.2024 | 08:30 | 19.2 | 86 | 16.8 | 1014.9 | 0.0 | N | 90 | 0.0 |
| 30.08.2024 | 08:35 | 19.3 | 85 | 16.7 | 1014.9 | 0.0 | N | 91 | 0.0 |
| 30.08.2024 | 08:40 | 19.5 | 85 | 16.9 | 1014.9 | 0.0 | N | 113 | 0.0 |
| 30.08.2024 | 08:45 | 19.7 | 85 | 17.1 | 1015.0 | 0.0 | N | 130 | 0.0 |
| 30.08.2024 | 08:50 | 19.8 | 85 | 17.2 | 1015.1 | 0.0 | N | 149 | 0.0 |
| 30.08.2024 | 08:55 | 20.0 | 84 | 17.2 | 1015.3 | 0.0 | N | 183 | 0.0 |
| 30.08.2024 | 09:00 | 20.2 | 84 | 17.4 | 1015.8 | 0.0 | N | 155 | 0.0 |
| 30.08.2024 | 09:05 | 20.4 | 83 | 17.4 | 1016.5 | 0.0 | N | 23 | 0.0 |
| 30.08.2024 | 09:10 | 20.5 | 82 | 17.3 | 1016.6 | 0.0 | N | 21 | 0.0 |
| 30.08.2024 | 09:15 | 20.4 | 83 | 17.4 | 1016.7 | 0.0 | N | 40 | 0.0 |
| 30.08.2024 | 09:20 | 20.3 | 83 | 17.3 | 1016.6 | 0.0 | N | 28 | 0.0 |
| 30.08.2024 | 09:25 | 20.2 | 84 | 17.4 | 1016.5 | 0.0 | N | 33 | 0.0 |
| 30.08.2024 | 09:30 | 20.1 | 84 | 17.3 | 1016.3 | 0.0 | N | 28 | 0.0 |
| 30.08.2024 | 09:35 | 19.9 | 85 | 17.3 | 1016.7 | 0.0 | N | 16 | 0.0 |
| 30.08.2024 | 09:40 | 19.9 | 85 | 17.3 | 1016.6 | 0.0 | N | 12 | 0.0 |
| 30.08.2024 | 09:45 | 19.8 | 85 | 17.2 | 1016.6 | 0.0 | N | 12 | 0.0 |
| 30.08.2024 | 09:50 | 19.8 | 86 | 17.4 | 1016.5 | 0.0 | N | 16 | 0.0 |
| 30.08.2024 | 09:55 | 19.6 | 87 | 17.4 | 1016.3 | 0.0 | N | 23 | 0.4 |
| 30.08.2024 | 10:00 | 19.4 | 87 | 17.2 | 1016.6 | 0.0 | N | 26 | 1.2 |
| 30.08.2024 | 10:05 | 19.3 | 88 | 17.3 | 1016.9 | 0.0 | N | 21 | 2.6 |
| 30.08.2024 | 10:10 | 19.2 | 88 | 17.2 | 1017.0 | 0.0 | N | 53 | 3.0 |
| 30.08.2024 | 10:15 | 19.2 | 88 | 17.2 | 1017.3 | 0.0 | N | 37 | 3.0 |
| 30.08.2024 | 10:20 | 19.1 | 88 | 17.1 | 1017.5 | 0.0 | N | 19 | 3.0 |
| 30.08.2024 | 10:25 | 19.1 | 88 | 17.1 | 1017.5 | 0.0 | N | 19 | 3.0 |
| 30.08.2024 | 10:30 | 19.0 | 88 | 17.0 | 1017.4 | 0.0 | N | 16 | 3.0 |
| 30.08.2024 | 10:35 | 18.9 | 88 | 16.9 | 1017.3 | 0.0 | N | 14 | 3.0 |
| 30.08.2024 | 10:40 | 18.8 | 88 | 16.8 | 1017.1 | 0.0 | N | 21 | 3.0 |
| 30.08.2024 | 10:45 | 18.8 | 88 | 16.8 | 1017.0 | 0.0 | N | 28 | 3.4 |
| 30.08.2024 | 10:50 | 18.8 | 88 | 16.8 | 1017.0 | 0.0 | N | 21 | 3.8 |
| 30.08.2024 | 10:55 | 18.7 | 88 | 16.7 | 1016.8 | 0.0 | N | 19 | 3.8 |
| 30.08.2024 | 11:00 | 18.7 | 88 | 16.7 | 1016.7 | 0.0 | N | 23 | 3.8 |
| 30.08.2024 | 11:05 | 18.6 | 88 | 16.6 | 1016.5 | 0.0 | N | 46 | 4.6 |
| 30.08.2024 | 11:10 | 18.6 | 88 | 16.6 | 1016.3 | 0.0 | N | 69 | 5.8 |
| 30.08.2024 | 11:15 | 18.6 | 88 | 16.6 | 1015.9 | 0.0 | N | 113 | 6.0 |
| 30.08.2024 | 11:20 | 18.7 | 88 | 16.7 | 1015.9 | 0.0 | N | 120 | 6.2 |
| 30.08.2024 | 11:25 | 18.8 | 88 | 16.8 | 1015.7 | 0.0 | N | 113 | 6.2 |
| 30.08.2024 | 11:30 | 18.9 | 88 | 16.9 | 1015.6 | 0.0 | N | 132 | 6.2 |
| 30.08.2024 | 11:35 | 19.0 | 88 | 17.0 | 1015.6 | 0.0 | N | 134 | 6.2 |
| 30.08.2024 | 11:40 | 19.1 | 88 | 17.1 | 1015.6 | 0.0 | N | 135 | 6.2 |
| 30.08.2024 | 11:45 | 19.1 | 87 | 16.9 | 1015.7 | 0.0 | N | 146 | 6.2 |
| 30.08.2024 | 11:50 | 19.1 | 88 | 17.1 | 1015.8 | 0.0 | N | 155 | 6.2 |
| 30.08.2024 | 11:55 | 19.2 | 88 | 17.2 | 1015.8 | 0.0 | N | 139 | 6.2 |
| 30.08.2024 | 12:00 | 19.3 | 88 | 17.3 | 1015.8 | 0.0 | N | 114 | 6.2 |
| 30.08.2024 | 12:05 | 19.3 | 88 | 17.3 | 1015.8 | 0.0 | N | 118 | 6.2 |
| 30.08.2024 | 12:10 | 19.3 | 88 | 17.3 | 1015.8 | 0.0 | N | 121 | 6.2 |
| 30.08.2024 | 12:15 | 19.3 | 88 | 17.3 | 1015.9 | 0.0 | N | 118 | 6.2 |
| 30.08.2024 | 12:20 | 19.3 | 88 | 17.3 | 1015.8 | 0.0 | N | 120 | 6.2 |
| 30.08.2024 | 12:25 | 19.4 | 87 | 17.2 | 1015.8 | 0.0 | N | 111 | 6.2 |
| 30.08.2024 | 12:30 | 19.4 | 87 | 17.2 | 1015.8 | 0.0 | N | 130 | 6.2 |
| 30.08.2024 | 12:35 | 19.5 | 87 | 17.3 | 1015.8 | 0.0 | N | 172 | 6.2 |
| 30.08.2024 | 12:40 | 19.6 | 87 | 17.4 | 1015.8 | 0.0 | N | 237 | 6.2 |
| 30.08.2024 | 12:45 | 19.8 | 87 | 17.6 | 1015.8 | 0.0 | N | 264 | 6.2 |
| 30.08.2024 | 12:50 | 20.0 | 87 | 17.8 | 1015.8 | 0.0 | N | 251 | 6.2 |
| 30.08.2024 | 12:55 | 20.2 | 87 | 18.0 | 1015.8 | 0.0 | N | 183 | 6.2 |
| 30.08.2024 | 13:00 | 20.2 | 88 | 18.1 | 1015.8 | 0.0 | N | 155 | 6.2 |
| 30.08.2024 | 13:05 | 20.2 | 88 | 18.1 | 1015.9 | 0.0 | N | 105 | 6.2 |
| 30.08.2024 | 13:10 | 20.3 | 88 | 18.2 | 1016.1 | 0.0 | N | 65 | 6.2 |
| 30.08.2024 | 13:15 | 20.2 | 88 | 18.1 | 1016.1 | 0.0 | N | 42 | 6.2 |
| 30.08.2024 | 13:20 | 20.1 | 88 | 18.0 | 1016.0 | 0.0 | N | 54 | 6.2 |
| 30.08.2024 | 13:25 | 20.1 | 88 | 18.0 | 1015.7 | 0.0 | N | 62 | 6.4 |
| 30.08.2024 | 13:30 | 19.9 | 88 | 17.9 | 1015.7 | 0.0 | N | 62 | 7.0 |
| 30.08.2024 | 13:35 | 19.9 | 88 | 17.9 | 1015.8 | 0.0 | N | 37 | 7.4 |
| 30.08.2024 | 13:40 | 19.8 | 88 | 17.8 | 1015.8 | 0.0 | N | 44 | 7.6 |
| 30.08.2024 | 13:45 | 19.7 | 88 | 17.7 | 1015.9 | 0.0 | N | 60 | 7.6 |
| 30.08.2024 | 13:50 | 19.7 | 88 | 17.7 | 1015.8 | 0.0 | N | 67 | 8.0 |
| 30.08.2024 | 13:55 | 19.7 | 88 | 17.7 | 1015.8 | 0.0 | N | 76 | 9.0 |
| 30.08.2024 | 14:00 | 19.8 | 88 | 17.8 | 1015.6 | 0.0 | N | 86 | 9.6 |
| 30.08.2024 | 14:05 | 19.8 | 88 | 17.8 | 1015.7 | 0.0 | N | 77 | 9.6 |
| 30.08.2024 | 14:10 | 19.8 | 88 | 17.8 | 1015.5 | 0.0 | N | 104 | 10.0 |
| 30.08.2024 | 14:15 | 19.8 | 88 | 17.8 | 1015.6 | 0.0 | N | 255 | 10.0 |
| 30.08.2024 | 14:20 | 20.0 | 87 | 17.8 | 1015.6 | 0.0 | N | 225 | 10.0 |
| 30.08.2024 | 14:25 | 20.2 | 87 | 18.0 | 1015.6 | 0.0 | N | 320 | 10.0 |
| 30.08.2024 | 14:30 | 20.3 | 87 | 18.1 | 1015.6 | 0.0 | N | 336 | 10.0 |
| 30.08.2024 | 14:35 | 20.6 | 87 | 18.4 | 1015.6 | 0.0 | N | 241 | 10.0 |
| 30.08.2024 | 14:40 | 20.7 | 87 | 18.5 | 1015.5 | 0.0 | N | 338 | 10.0 |
| 30.08.2024 | 14:45 | 20.8 | 87 | 18.6 | 1015.6 | 0.0 | N | 343 | 10.0 |
| 30.08.2024 | 14:50 | 20.9 | 87 | 18.7 | 1015.5 | 0.0 | NNW | 466 | 10.0 |
| 30.08.2024 | 14:55 | 21.2 | 87 | 18.9 | 1015.5 | 0.0 | NNW | 547 | 10.0 |
| 30.08.2024 | 15:00 | 21.6 | 87 | 19.3 | 1015.4 | 0.0 | NO | 613 | 10.0 |
| 30.08.2024 | 15:05 | 21.9 | 87 | 19.6 | 1015.5 | 0.0 | NO | 696 | 10.0 |
| 30.08.2024 | 15:10 | 22.2 | 87 | 19.9 | 1015.5 | 0.0 | SW | 640 | 10.0 |
| 30.08.2024 | 15:15 | 22.2 | 88 | 20.1 | 1015.5 | 0.0 | ONO | 466 | 10.0 |
| 30.08.2024 | 15:20 | 22.3 | 88 | 20.2 | 1015.4 | 0.0 | NO | 527 | 10.0 |
| 30.08.2024 | 15:25 | 22.5 | 88 | 20.4 | 1015.4 | 0.0 | NO | 485 | 10.0 |
| 30.08.2024 | 15:30 | 22.6 | 88 | 20.5 | 1015.5 | 0.0 | NO | 343 | 10.0 |
| 30.08.2024 | 15:35 | 22.6 | 87 | 20.3 | 1015.3 | 0.0 | ONO | 271 | 10.0 |
| 30.08.2024 | 15:40 | 22.6 | 87 | 20.3 | 1015.3 | 0.0 | NO | 241 | 10.0 |
| 30.08.2024 | 15:45 | 22.6 | 86 | 20.1 | 1015.2 | 0.0 | N | 236 | 10.0 |
| 30.08.2024 | 15:50 | 22.6 | 87 | 20.3 | 1015.2 | 0.0 | NNO | 225 | 10.0 |
| 30.08.2024 | 15:55 | 22.6 | 87 | 20.3 | 1015.2 | 0.0 | N | 229 | 10.0 |
| 30.08.2024 | 16:00 | 22.6 | 87 | 20.3 | 1015.1 | 0.0 | NNO | 230 | 10.0 |
| 30.08.2024 | 16:05 | 22.7 | 87 | 20.4 | 1015.1 | 0.0 | NNO | 216 | 10.0 |
| 30.08.2024 | 16:10 | 22.7 | 87 | 20.4 | 1015.2 | 0.0 | NNO | 218 | 10.0 |
| 30.08.2024 | 16:15 | 22.8 | 87 | 20.5 | 1015.1 | 0.0 | NNO | 246 | 10.0 |
| 30.08.2024 | 16:20 | 22.8 | 87 | 20.5 | 1015.0 | 0.0 | O | 334 | 10.0 |
| 30.08.2024 | 16:25 | 22.8 | 86 | 20.3 | 1014.9 | 0.0 | NW | 364 | 10.0 |
| 30.08.2024 | 16:30 | 22.9 | 86 | 20.4 | 1014.9 | 0.0 | N | 350 | 10.0 |
| 30.08.2024 | 16:35 | 23.1 | 86 | 20.6 | 1014.9 | 0.0 | N | 343 | 10.0 |
| 30.08.2024 | 16:40 | 23.3 | 86 | 20.8 | 1015.0 | 0.0 | N | 394 | 10.0 |
| 30.08.2024 | 16:45 | 23.4 | 84 | 20.5 | 1014.9 | 0.0 | N | 345 | 10.0 |
| 30.08.2024 | 16:50 | 23.4 | 83 | 20.3 | 1014.9 | 0.0 | NNW | 279 | 10.0 |
| 30.08.2024 | 16:55 | 23.3 | 83 | 20.2 | 1014.9 | 0.0 | NO | 246 | 10.0 |
| 30.08.2024 | 17:00 | 23.4 | 83 | 20.3 | 1014.9 | 0.0 | NW | 156 | 10.0 |
| 30.08.2024 | 17:05 | 23.3 | 83 | 20.2 | 1014.9 | 0.0 | N | 139 | 10.0 |
| 30.08.2024 | 17:10 | 23.3 | 83 | 20.2 | 1014.9 | 0.0 | N | 130 | 10.0 |
| 30.08.2024 | 17:15 | 23.3 | 83 | 20.2 | 1015.2 | 0.0 | NO | 125 | 10.0 |
| 30.08.2024 | 17:20 | 23.2 | 83 | 20.2 | 1015.1 | 0.0 | N | 114 | 10.0 |
| 30.08.2024 | 17:25 | 23.2 | 84 | 20.3 | 1015.1 | 0.0 | N | 105 | 10.0 |
| 30.08.2024 | 17:30 | 23.2 | 83 | 20.2 | 1015.2 | 0.0 | N | 109 | 10.0 |
| 30.08.2024 | 17:35 | 23.1 | 84 | 20.2 | 1015.2 | 0.0 | N | 125 | 10.0 |
| 30.08.2024 | 17:40 | 23.1 | 84 | 20.2 | 1015.2 | 0.0 | N | 160 | 10.0 |
| 30.08.2024 | 17:45 | 23.2 | 84 | 20.3 | 1015.2 | 0.0 | ONO | 181 | 10.0 |
| 30.08.2024 | 17:50 | 23.3 | 84 | 20.4 | 1015.2 | 0.0 | NO | 186 | 10.0 |
| 30.08.2024 | 17:55 | 23.4 | 84 | 20.5 | 1015.2 | 0.0 | N | 178 | 10.0 |
| 30.08.2024 | 18:00 | 23.5 | 84 | 20.6 | 1015.2 | 0.0 | N | 251 | 10.0 |
| 30.08.2024 | 18:05 | 23.5 | 83 | 20.4 | 1015.2 | 0.0 | N | 283 | 10.0 |
| 30.08.2024 | 18:10 | 23.4 | 83 | 20.3 | 1015.2 | 0.0 | N | 141 | 10.0 |
| 30.08.2024 | 18:15 | 23.4 | 82 | 20.1 | 1015.1 | 0.0 | NO | 220 | 10.0 |
| 30.08.2024 | 18:20 | 23.3 | 82 | 20.1 | 1015.1 | 0.0 | NNW | 227 | 10.0 |
| 30.08.2024 | 18:25 | 23.3 | 82 | 20.1 | 1015.1 | 0.0 | O | 227 | 10.0 |
| 30.08.2024 | 18:30 | 23.1 | 82 | 19.9 | 1015.2 | 0.0 | ONO | 132 | 10.0 |
| 30.08.2024 | 18:35 | 22.9 | 82 | 19.7 | 1015.2 | 0.0 | NO | 105 | 10.0 |
| 30.08.2024 | 18:40 | 22.8 | 83 | 19.8 | 1015.1 | 0.0 | NNW | 88 | 10.0 |
| 30.08.2024 | 18:45 | 22.6 | 82 | 19.4 | 1015.1 | 0.0 | N | 47 | 10.0 |
| 30.08.2024 | 18:50 | 22.3 | 83 | 19.3 | 1015.1 | 0.0 | N | 67 | 10.0 |
| 30.08.2024 | 18:55 | 22.1 | 84 | 19.3 | 1015.2 | 0.0 | N | 72 | 10.0 |
| 30.08.2024 | 19:00 | 21.8 | 84 | 19.0 | 1015.1 | 0.0 | N | 63 | 10.0 |
| 30.08.2024 | 19:05 | 21.7 | 84 | 18.9 | 1015.1 | 0.0 | N | 67 | 10.0 |
| 30.08.2024 | 19:10 | 21.6 | 84 | 18.8 | 1015.1 | 0.0 | N | 56 | 10.0 |
| 30.08.2024 | 19:15 | 21.3 | 84 | 18.5 | 1015.1 | 0.0 | N | 37 | 10.0 |
| 30.08.2024 | 19:20 | 21.2 | 85 | 18.6 | 1015.0 | 0.0 | N | 25 | 10.0 |
| 30.08.2024 | 19:25 | 20.9 | 85 | 18.3 | 1015.0 | 0.0 | N | 19 | 10.0 |
| 30.08.2024 | 19:30 | 20.7 | 85 | 18.1 | 1015.0 | 0.0 | N | 19 | 10.0 |
| 30.08.2024 | 19:35 | 20.6 | 86 | 18.2 | 1015.1 | 0.0 | N | 26 | 10.0 |
| 30.08.2024 | 19:40 | 20.3 | 86 | 17.9 | 1015.1 | 0.0 | N | 25 | 10.0 |
| 30.08.2024 | 19:45 | 20.2 | 86 | 17.8 | 1015.2 | 0.0 | N | 21 | 10.0 |
| 30.08.2024 | 19:50 | 20.0 | 86 | 17.6 | 1015.3 | 0.0 | N | 19 | 10.0 |
| 30.08.2024 | 19:55 | 19.8 | 86 | 17.4 | 1015.3 | 0.0 | N | 16 | 10.0 |
| 30.08.2024 | 20:00 | 19.7 | 87 | 17.5 | 1015.3 | 0.0 | N | 14 | 10.0 |
| 30.08.2024 | 20:05 | 19.6 | 87 | 17.4 | 1015.3 | 0.0 | N | 11 | 10.0 |
| 30.08.2024 | 20:10 | 19.5 | 87 | 17.3 | 1015.3 | 0.0 | N | 7 | 10.0 |
| 30.08.2024 | 20:15 | 19.4 | 87 | 17.2 | 1015.2 | 0.0 | N | 5 | 10.0 |
| 30.08.2024 | 20:20 | 19.3 | 87 | 17.1 | 1015.2 | 0.0 | N | 0 | 10.0 |
| 30.08.2024 | 20:25 | 19.2 | 88 | 17.2 | 1015.2 | 0.0 | N | 0 | 10.0 |
| 30.08.2024 | 20:30 | 19.1 | 88 | 17.1 | 1015.2 | 0.0 | N | 0 | 10.0 |
| 30.08.2024 | 20:35 | 19.1 | 88 | 17.1 | 1015.4 | 0.0 | N | 0 | 10.0 |
| 30.08.2024 | 20:40 | 19.0 | 88 | 17.0 | 1015.5 | 0.0 | N | 0 | 10.0 |
| 30.08.2024 | 20:45 | 18.9 | 88 | 16.9 | 1015.4 | 0.0 | N | 0 | 10.0 |
| 30.08.2024 | 20:50 | 18.9 | 88 | 16.9 | 1015.5 | 0.0 | N | 0 | 10.0 |
| 30.08.2024 | 20:55 | 18.9 | 88 | 16.9 | 1015.5 | 0.0 | N | 0 | 10.0 |
| 30.08.2024 | 21:00 | 18.9 | 88 | 16.9 | 1015.6 | 0.0 | N | 0 | 10.0 |
| 30.08.2024 | 21:05 | 18.9 | 88 | 16.9 | 1015.7 | 0.0 | N | 0 | 10.0 |
| 30.08.2024 | 21:10 | 18.9 | 88 | 16.9 | 1015.8 | 0.0 | N | 0 | 10.0 |
| 30.08.2024 | 21:15 | 18.9 | 88 | 16.9 | 1015.9 | 0.0 | N | 0 | 10.0 |
| 30.08.2024 | 21:20 | 18.9 | 88 | 16.9 | 1015.9 | 0.0 | N | 0 | 10.0 |
| 30.08.2024 | 21:25 | 18.9 | 88 | 16.9 | 1015.8 | 0.0 | N | 0 | 10.0 |
| 30.08.2024 | 21:30 | 18.8 | 88 | 16.8 | 1015.8 | 0.0 | N | 0 | 10.0 |
| 30.08.2024 | 21:35 | 18.8 | 88 | 16.8 | 1015.9 | 0.0 | N | 0 | 10.0 |
| 30.08.2024 | 21:40 | 18.8 | 88 | 16.8 | 1015.9 | 0.0 | N | 0 | 10.0 |
| 30.08.2024 | 21:45 | 18.8 | 89 | 16.9 | 1016.0 | 0.0 | N | 0 | 10.0 |
| 30.08.2024 | 21:50 | 18.8 | 89 | 16.9 | 1015.8 | 0.0 | N | 0 | 10.0 |
| 30.08.2024 | 21:55 | 18.8 | 89 | 16.9 | 1015.9 | 0.0 | N | 0 | 10.0 |
| 30.08.2024 | 22:00 | 18.8 | 89 | 16.9 | 1016.0 | 0.0 | N | 0 | 10.0 |
| 30.08.2024 | 22:05 | 18.9 | 89 | 17.0 | 1016.1 | 0.0 | N | 0 | 10.0 |
| 30.08.2024 | 22:10 | 18.9 | 89 | 17.0 | 1016.1 | 0.0 | N | 0 | 10.0 |
| 30.08.2024 | 22:15 | 18.8 | 89 | 16.9 | 1016.1 | 0.0 | N | 0 | 10.0 |
| 30.08.2024 | 22:20 | 18.9 | 89 | 17.0 | 1016.1 | 0.0 | N | 0 | 10.0 |
| 30.08.2024 | 22:25 | 18.8 | 88 | 16.8 | 1016.1 | 0.0 | N | 0 | 10.0 |
| 30.08.2024 | 22:30 | 18.8 | 88 | 16.8 | 1016.0 | 0.0 | N | 0 | 10.0 |
| 30.08.2024 | 22:35 | 18.8 | 88 | 16.8 | 1016.0 | 0.0 | N | 0 | 10.0 |
| 30.08.2024 | 22:40 | 18.8 | 88 | 16.8 | 1015.8 | 0.0 | N | 0 | 10.0 |
| 30.08.2024 | 22:45 | 18.8 | 88 | 16.8 | 1016.0 | 0.0 | N | 0 | 10.0 |
| 30.08.2024 | 22:50 | 18.8 | 88 | 16.8 | 1016.0 | 0.0 | N | 0 | 10.0 |
| 30.08.2024 | 22:55 | 18.7 | 88 | 16.7 | 1016.0 | 0.0 | N | 0 | 10.0 |
| 30.08.2024 | 23:00 | 18.7 | 88 | 16.7 | 1016.1 | 0.0 | N | 0 | 10.0 |
| 30.08.2024 | 23:05 | 18.7 | 88 | 16.7 | 1016.1 | 0.0 | N | 0 | 10.0 |
| 30.08.2024 | 23:10 | 18.6 | 88 | 16.6 | 1016.2 | 0.0 | N | 0 | 10.0 |
| 30.08.2024 | 23:15 | 18.6 | 88 | 16.6 | 1016.2 | 0.0 | N | 0 | 10.0 |
| 30.08.2024 | 23:20 | 18.6 | 88 | 16.6 | 1016.3 | 0.0 | N | 0 | 10.0 |
| 30.08.2024 | 23:25 | 18.5 | 88 | 16.5 | 1016.3 | 0.0 | N | 0 | 10.0 |
| 30.08.2024 | 23:30 | 18.4 | 88 | 16.4 | 1016.3 | 0.0 | N | 0 | 10.0 |
| 30.08.2024 | 23:35 | 18.4 | 88 | 16.4 | 1016.3 | 0.0 | N | 0 | 10.0 |
| 30.08.2024 | 23:40 | 18.3 | 88 | 16.3 | 1016.3 | 0.0 | N | 0 | 10.0 |
| 30.08.2024 | 23:45 | 18.3 | 88 | 16.3 | 1016.2 | 0.0 | NNO | 0 | 10.0 |
| 30.08.2024 | 23:50 | 18.2 | 88 | 16.2 | 1016.3 | 0.0 | NNO | 0 | 10.0 |
| 30.08.2024 | 23:55 | 18.2 | 88 | 16.2 | 1016.2 | 0.0 | NNO | 0 | 10.0 |